Location: Tucson
(32.2217°N, 110.9265°W)
Time: 12:22:29
(UTC-07:00)

Envisat - Visible Passes

Search period start: 21 September 2017 00:00
Search period end: 01 October 2017 00:00
Orbit: 764 x 766 km, 98.2° (Epoch: 21 September)

Date Brightness Start Highest point End Pass type
(mag) Time Alt. Az. Time Alt. Az. Time Alt. Az.
21 Sep 3.4 19:48:56 37° E 19:49:42 39° ENE 19:54:25 10° N visible
21 Sep 5.4 21:29:08 18° W 21:29:08 18° W 21:32:15 10° NW visible
22 Sep 4.5 19:11:57 16° E 19:13:19 17° ENE 19:16:32 10° NNE visible
22 Sep 3.9 20:52:10 44° W 20:52:10 44° W 20:56:46 10° NNW visible
23 Sep 2.8 20:15:11 75° ENE 20:15:13 75° ENE 20:20:17 10° N visible
24 Sep 3.7 19:38:12 30° E 19:38:41 31° ENE 19:43:05 10° N visible
24 Sep 5.1 21:18:25 23° W 21:18:25 23° W 21:21:41 10° NW visible
25 Sep 4.7 19:01:14 12° E 19:02:21 13° ENE 19:04:40 10° NE visible
25 Sep 3.6 20:41:26 54° WNW 20:41:26 54° WNW 20:45:49 10° NNW visible
26 Sep 3.1 20:04:28 56° ENE 20:04:28 56° ENE 20:09:06 10° N visible
26 Sep 5.9 21:44:41 11° WNW 21:44:41 11° WNW 21:45:28 10° WNW visible
27 Sep 4.1 19:27:29 24° ENE 19:27:41 24° ENE 19:31:41 10° NNE visible
27 Sep 4.8 21:07:42 27° WNW 21:07:42 27° WNW 21:10:56 10° NW visible
28 Sep 3.5 20:30:44 56° NNW 20:30:44 56° NNW 20:34:47 10° NNW visible
29 Sep 3.5 19:53:45 41° NE 19:53:45 41° NE 19:57:53 10° N visible
29 Sep 5.7 21:33:58 14° WNW 21:33:58 14° WNW 21:35:23 10° NW visible
30 Sep 4.4 19:16:47 19° ENE 19:16:47 19° ENE 19:20:09 10° NNE visible
30 Sep 4.6 20:57:00 31° WNW 20:57:00 31° WNW 21:00:06 10° NNW visible
